Location: Petruro
(41.0333°N, 14.7833°E)
Time: 01:07:12
(UTC+00:00)

DELTA 2 R/B (1) - Visible Passes

Search period start: 24 October 2021 00:00
Search period end: 03 November 2021 00:00
Orbit: 790 x 803 km, 39.6° (Epoch: 23 October)

Date Brightness Start Highest point End Pass type
(mag) Time Alt. Az. Time Alt. Az. Time Alt. Az.
24 Oct 5.6 18:07:25 10° S 18:08:44 14° SSE 18:08:44 14° SSE visible
25 Oct 5.4 17:36:50 10° S 17:39:50 15° SE 17:39:50 15° SE visible
25 Oct 6.1 19:20:13 10° SW 19:20:37 12° SW 19:20:37 12° SW visible
26 Oct 5.4 17:06:21 10° S 17:09:00 14° SE 17:10:51 12° ESE visible
26 Oct 5.3 18:49:20 10° SW 18:51:38 23° SSW 18:51:38 23° SSW visible
27 Oct 5.6 16:35:58 10° SSE 16:38:07 12° SE 16:40:16 10° ESE visible
27 Oct 4.5 18:18:28 10° SW 18:22:35 36° S 18:22:35 36° S visible
28 Oct 4.2 17:47:37 10° SW 17:52:43 37° SSE 17:53:27 36° SE visible
28 Oct 6.1 19:33:14 10° WSW 19:34:14 15° WSW 19:34:14 15° WSW visible
29 Oct 4.4 17:16:46 10° SW 17:21:48 35° SSE 17:24:16 24° ESE visible
29 Oct 5.2 19:02:17 10° WSW 19:05:03 30° WSW 19:05:03 30° WSW visible
30 Oct 4.6 16:45:56 10° SW 16:50:53 33° SSE 16:55:02 14° E visible
30 Oct 4.1 18:31:20 10° WSW 18:35:48 54° SW 18:35:48 54° SW visible
31 Oct 3.5 18:00:24 10° WSW 18:05:57 67° SSE 18:06:30 62° SE visible
31 Oct 6.3 19:46:42 10° W 19:47:16 13° W 19:47:16 13° W visible
01 Nov 3.7 17:29:27 10° WSW 17:35:01 65° SSE 17:37:11 36° E visible
01 Nov 5.6 19:15:45 10° W 19:17:57 25° W 19:17:57 25° W visible
02 Nov 3.8 16:58:32 10° WSW 17:04:03 62° SSE 17:07:51 20° E visible
02 Nov 4.5 18:44:47 10° W 18:48:37 45° W 18:48:37 45° W visible
